#timestamp,LO_Frequency,Hit,StdDev 
1665954015.5,286047001.2,N
1665954035.3,286047001.0,N
1665954055.1,286047000.1,N
1665954105.9,286047000.1,E
1665954115.8,286047002.5,N
1665954135.7,286047002.2,P
1665954155.5,286046999.7,N
1665954175.3,286047000.8,N
1665954195.2,286046999.9,N
1665954215.0,286046998.6,N
1665954215.9,286046998.6,N
1665954235.8,286046998.2,N
1665954255.6,286046999.4,N
1665954275.4,286046998.8,N
1665954295.3,286047000.9,N
1665954315.1,286047000.4,N
1665954335.8,286046998.2,N
1665954355.7,286047001.0,N
1665954375.5,286047000.6,N
1665954395.4,286046998.1,N
1665954415.2,286046998.7,N
1665954435.0,286047000.9,N
1665954435.9,286047000.9,N
1665954455.8,286047000.8,N
1665954475.6,286046998.1,N
1665954495.4,286046999.2,N
1665954515.3,286046997.0,N
1665954535.1,286046997.0,N
1665954555.9,286046999.6,N
1665954575.7,286046997.8,N
1665954595.5,286046997.7,N
1665954615.4,286046997.8,N
1665954635.2,286046997.5,N
1665954655.0,286046995.0,Y
1665954656.0,286046995.0,P
1665954675.8,286046997.4,N
1665954695.6,286046997.4,N
1665954715.5,286046999.6,N
1665954735.3,286046998.0,N
1665954755.1,286046995.2,Y
1665954775.9,286046998.4,P
1665954795.7,286046998.5,P
1665954815.6,286046999.2,N
1665954835.4,286046998.8,N
1665954855.2,286047000.4,N
1665954875.1,286047000.6,N
1665954876.0,286047000.6,N
1665954895.8,286046998.3,N
1665954915.6,286046998.5,N
1665954935.5,286046998.1,N
1665954955.3,286046998.7,N
1665954975.2,286046999.0,N
1665954995.9,286046999.2,N
1665955015.7,286047001.2,N
1665955035.6,286047000.3,N
1665955055.4,286047001.1,N
1665955075.2,286046999.4,N
1665955095.1,286046998.7,N
1665955096.0,286046998.7,N
1665955115.8,286046998.2,N
1665955135.6,286046998.1,N
1665955155.5,286046998.3,N
1665955175.3,286047001.2,N
1665955195.2,286046998.3,N
1665955215.9,286046999.0,N
1665955235.7,286046998.6,N
1665955255.6,286046998.6,N
1665955275.4,286047000.7,N
1665955295.2,286047000.8,N
1665955315.1,286047001.1,N
1665955316.0,286047001.1,N
1665955335.8,286047000.4,N
1665955355.7,286047002.5,N
1665955375.5,286047000.4,N
1665955395.3,286047001.1,N
1665955415.2,286046998.6,N
1665955435.9,286047000.7,N
1665955455.7,286047000.3,N
1665955475.6,286047000.3,N
1665955495.4,286047000.2,N
1665955515.2,286047001.2,N
1665955535.1,286046998.5,N
1665955536.0,286046998.5,N
1665955555.8,286047001.2,N
1665955575.7,286047000.5,N
1665955595.5,286046998.1,N
1665955615.3,286046999.4,N
1665955635.2,286047000.8,N
1665955655.0,286047000.9,N
1665955655.9,286047000.9,N
1665955675.8,286046998.7,N
1665955695.6,286046998.4,N
1665955715.4,286046999.3,N
1665955735.3,286046998.7,N
1665955755.1,286047000.6,N
1665955775.8,286046998.5,N
1665955795.7,286046998.2,N
1665955815.5,286047000.5,N
1665955835.3,286047000.2,N
1665955855.2,286047001.2,N
1665955875.0,286046998.9,N
1665955875.9,286046998.9,N
1665955895.8,286047000.3,N
1665955915.6,286047000.4,N
1665955935.4,286047000.3,N
1665955955.3,286047001.2,N
1665955975.1,286046999.9,N
1665955995.9,286047004.4,Y
1665956015.7,286047001.0,P
1665956035.5,286047002.5,P
1665956055.4,286047003.6,P
1665956075.2,286047005.0,Y
1665956095.0,286047001.9,P
1665956095.9,286047001.9,P
1665956115.8,286047000.3,P
1665956135.6,286047001.5,N
1665956155.5,286047002.4,Y
1665956175.3,286047002.3,P
1665956195.1,286047001.3,P
1665956215.9,286047001.9,P
1665956235.7,286047000.0,N
1665956255.5,286047002.0,N
1665956275.4,286047001.7,N
1665956295.2,286047002.2,Y
1665956315.1,286047001.0,P
1665956316.0,286047001.0,P
1665956335.8,286046998.8,P
1665956355.6,286046999.3,N
1665956375.5,286046999.7,N
1665956395.3,286047000.2,N
1665956415.1,286046999.8,N
1665956435.9,286047001.1,N
1665956455.7,286047000.7,N
1665956475.6,286047000.8,N
1665956495.4,286046998.8,N
1665956515.2,286046998.4,N
1665956535.1,286047000.0,N
1665956536.0,286047000.0,N
1665956555.8,286047000.1,N
1665956575.6,286046998.6,N
1665956595.5,286046998.3,N
1665956615.3,286047001.2,N
1665956635.2,286047002.7,N
1665956655.9,286047002.4,N
1665956675.7,286047002.7,N
1665956695.6,286046999.8,N
1665956715.4,286046999.9,N
1665956735.2,286046999.3,N
1665956755.1,286046999.6,N
1665956756.0,286046999.6,N
1665956775.8,286046999.6,N
1665956795.7,286046998.9,N
1665956815.5,286046996.5,N
1665956835.3,286046998.6,N
1665956855.2,286047001.0,N
1665956875.9,286046998.2,N
1665956895.7,286046997.4,N
1665956915.6,286046997.0,N
1665956935.4,286047001.2,N
1665956955.2,286046998.6,N
1665956975.1,286046998.9,N
1665956976.0,286046998.9,N
1665956995.8,286046998.6,N
1665957015.7,286046999.4,N
1665957035.5,286046996.8,N
1665957055.3,286046997.5,N
1665957075.2,286046997.5,N
1665957095.0,286046997.9,N
1665957095.9,286046997.9,N
1665957115.7,286046998.9,N
1665957135.6,286046996.7,N
1665957155.4,286046997.3,N
1665957175.3,286046999.3,N
1665957195.1,286046998.9,N
1665957196.0,286046998.9,N
1665957215.8,286046997.2,N
1665957235.7,286046998.0,N
1665957255.5,286046997.1,N
1665957275.3,286046997.1,N
1665957295.2,286046996.9,N
1665957315.0,286046999.2,N
1665957315.9,286046999.2,N
1665957335.8,286047000.5,N
1665957355.6,286047001.0,N
1665957375.4,286047000.8,N
1665957395.3,286046998.3,N
1665957415.1,286047000.7,N
1665957435.9,286046999.7,N
1665957455.7,286047001.0,N
1665957475.5,286046999.0,N
1665957495.4,286046998.4,N
1665957515.2,286046998.6,N
1665957535.0,286046996.6,N
1665957535.9,286046996.6,N
1665957555.8,286046997.5,N
1665957575.6,286046997.9,N
1665957595.4,286046997.9,N
